SQX-1 R/B

Last updated on Fri Aug 29 2025 00:02:05 GMT+0000 (Coordinated Universal Time)

1 64963U 25160B 25239.88528753 .00075784 38012-5 42519-3 0 9993 2 64963 97.4368 316.0603 0160577 243.4635 115.0086 15.63197336 4648
UTC large
Height (km)
Speed (km/s)
/
Latitude / Longitude
Inclination (degrees)
Orbital Period (minutes)
Azimuth
Elevation
Range (km)
Doppler Factor

Next 0 passes for location: London (51.5072 / 0.1276)

Sorry there are no passes over London.
SQX-1 R/B